Location: 22
(39.7117°N, 89.5929°W)
Time: 10:06:48
(UTC-05:00)

Transit 2A - Pass Details

Date: 10 August 2024
Orbit: 590 x 961 km, 66.7° (Epoch: 13 September)

Event Time Altitude Azimuth Distance (km) Brightness Sun altitude
Rises 10:40:18 0° 342° (NNW) 3,630 9.2 50.3°
Reaches altitude 10° 10:45:36 10° 19° (NNE) 2,702 8.9 51.2°
Maximum altitude 10:47:00 11° 32° (NNE) 2,649 8.9 51.5°
Drops below altitude 10° 10:48:24 10° 45° (NE) 2,697 9.1 51.7°
Sets 10:53:38 0° 82° (E) 3,603 9.9 52.6°
